EW5954 Weather Reports


Display with metric or nautical units.
time (UTC)temp
F
wind
direction
speed
MPH
gust
MPH
rain 1hr
in
rain 24hr
in
rain mn
in
humidity
%
barometer
mb
20260508010319 44 280 0.0 0.0 0.00 0.03 0.03 75
20260508005815 44 53 0.0 0.0 0.00 0.03 0.03 74
20260508005312 44 15 0.0 0.0 0.00 0.03 0.03 74
20260508004808 45 357 0.0 1.0 0.00 0.03 0.03 73
20260508004304 45 22 0.0 0.0 0.00 0.03 0.03 73
20260508003801 45 12 0.0 0.0 0.00 0.03 0.03 73
20260508003259 45 5 0.0 1.0 0.00 0.03 0.03 72
20260508002755 45 325 0.0 1.0 0.00 0.03 0.03 73
20260508002252 45 359 0.0 1.0 0.00 0.03 0.03 72
20260508001748 45 353 0.0 1.0 0.00 0.03 0.03 71
20260508001244 46 19 0.0 1.0 0.00 0.03 0.03 72
20260508000740 46 21 0.0 1.0 0.00 0.03 0.03 71
20260508000238 46 335 1.0 2.0 0.00 0.03 0.03 71
20260507235734 46 19 0.0 2.0 0.00 0.03 0.03 71
20260507235232 46 19 0.0 2.0 0.00 0.03 0.03 71
20260507234728 46 284 1.0 5.0 0.00 0.03 0.03 70
20260507234225 46 43 1.0 2.0 0.00 0.03 0.03 70
20260507233721 46 29 3.0 6.0 0.00 0.03 0.03 70
20260507233219 46 30 3.0 5.0 0.00 0.03 0.03 69
20260507232716 46 4 3.0 6.0 0.00 0.03 0.03 67
20260507232213 47 72 1.0 7.0 0.00 0.03 0.03 67
20260507231710 48 42 2.0 9.0 0.00 0.03 0.03 65
20260507231207 48 37 1.0 2.0 0.00 0.03 0.03 63
20260507230704 48 41 0.0 3.0 0.00 0.03 0.03 62
20260507230201 48 43 3.0 5.0 0.00 0.03 0.03 63
20260507225700 48 46 1.0 3.0 0.00 0.03 0.03 62
20260507225157 48 57 5.0 7.0 0.00 0.03 0.03 61
20260507224653 49 31 3.0 8.0 0.00 0.03 0.03 59
20260507224149 49 42 1.0 5.0 0.00 0.03 0.03 58
20260507223645 49 352 0.0 5.0 0.00 0.03 0.03 59
20260507223143 50 54 4.0 8.0 0.00 0.03 0.03 56
20260507222639 50 75 3.0 5.0 0.00 0.03 0.03 54
20260507222136 50 96 4.0 6.0 0.00 0.03 0.03 54
20260507221632 50 85 1.0 8.0 0.00 0.03 0.03 53
20260507221129 50 355 0.0 7.0 0.00 0.03 0.03 54
20260507220626 50 16 3.0 8.0 0.00 0.03 0.03 54
20260507220124 51 34 3.0 5.0 0.00 0.03 0.03 53
20260507215619 51 10 0.0 2.0 0.00 0.03 0.03 54
20260507215117 51 39 3.0 5.0 0.00 0.03 0.03 54
20260507214614 51 80 1.0 2.0 0.00 0.03 0.03 53
20260507214111 51 32 0.0 6.0 0.00 0.03 0.03 53
20260507213607 51 28 2.0 9.0 0.00 0.03 0.03 52
20260507213104 52 77 4.0 8.0 0.00 0.03 0.03 51
20260507212600 51 22 1.0 5.0 0.00 0.03 0.03 54
20260507212057 51 38 1.0 5.0 0.00 0.03 0.03 55
20260507211554 51 25 1.0 5.0 0.00 0.03 0.03 54
20260507211050 51 355 1.0 7.0 0.00 0.03 0.03 55
20260507210547 51 49 1.0 5.0 0.00 0.03 0.03 55
20260507210044 51 50 3.0 6.0 0.00 0.03 0.03 55
20260507205540 52 357 0.0 5.0 0.00 0.03 0.03 55
20260507205037 52 105 3.0 7.0 0.00 0.03 0.03 52
20260507204533 53 24 1.0 2.0 0.00 0.03 0.03 49
20260507204031 53 15 0.0 3.0 0.00 0.03 0.03 51
20260507203529 53 1 1.0 7.0 0.00 0.03 0.03 50
20260507203026 53 335 0.0 1.0 0.00 0.03 0.03 51
20260507202521 53 341 3.0 6.0 0.00 0.03 0.03 50
20260507202018 54 50 0.0 3.0 0.00 0.03 0.03 51
20260507201514 54 52 1.0 3.0 0.00 0.03 0.03 49
20260507201010 53 45 4.0 7.0 0.00 0.03 0.03 50
20260507200505 53 353 2.0 7.0 0.00 0.03 0.03 50
20260507200002 53 26 2.0 2.0 0.00 0.03 0.03 51
20260507195459 53 69 1.0 1.0 0.00 0.03 0.03 53
20260507194956 52 45 3.0 7.0 0.00 0.03 0.03 53
20260507194453 54 33 3.0 5.0 0.00 0.03 0.03 50
20260507193948 53 351 1.0 2.0 0.00 0.03 0.03 52
20260507193446 51 359 3.0 5.0 0.00 0.03 0.03 54
20260507192942 51 12 1.0 5.0 0.00 0.03 0.03 56
20260507192438 50 20 1.0 5.0 0.00 0.03 0.03 58
20260507191936 50 145 3.0 6.0 0.00 0.03 0.03 59
20260507191432 50 353 3.0 5.0 0.00 0.03 0.03 61
20260507190928 50 355 1.0 5.0 0.00 0.03 0.03 65
20260507190426 50 92 1.0 8.0 0.00 0.03 0.03 62
20260507185925 50 82 5.0 10.0 0.00 0.03 0.03 62
20260507185422 52 53 2.0 5.0 0.00 0.03 0.03 54
20260507184919 52 50 4.0 6.0 0.00 0.03 0.03 55
20260507184416 51 1 1.0 9.0 0.00 0.03 0.03 57
20260507183914 51 30 2.0 7.0 0.00 0.03 0.03 55
20260507183410 51 23 4.0 6.0 0.00 0.03 0.03 56
20260507182908 51 69 2.0 11.0 0.00 0.03 0.03 58
20260507182403 52 38 1.0 3.0 0.00 0.03 0.03 56
20260507181900 52 76 2.0 3.0 0.00 0.03 0.03 55
20260507181356 52 12 1.0 7.0 0.00 0.03 0.03 55
20260507180853 53 43 3.0 6.0 0.00 0.03 0.03 53
20260507180350 53 18 4.0 6.0 0.00 0.03 0.03 52
20260507175845 53 334 1.0 3.0 0.00 0.03 0.03 52
20260507175343 53 37 0.0 3.0 0.00 0.03 0.03 51
20260507174840 53 137 1.0 8.0 0.00 0.03 0.03 52
20260507174338 52 68 1.0 7.0 0.00 0.03 0.03 54
20260507173835 52 18 2.0 7.0 0.00 0.03 0.03 54
20260507173332 52 354 0.0 8.0 0.00 0.03 0.03 53
20260507172828 52 113 1.0 3.0 0.00 0.03 0.03 52
20260507172325 52 352 0.0 5.0 0.00 0.03 0.03 52
20260507171821 53 11 1.0 3.0 0.00 0.03 0.03 52
20260507171318 53 84 0.0 2.0 0.00 0.03 0.03 51
20260507170815 53 70 2.0 3.0 0.00 0.03 0.03 50
20260507170311 53 294 1.0 2.0 0.00 0.03 0.03 53
20260507165807 53 356 0.0 6.0 0.00 0.03 0.03 52
20260507165306 53 49 1.0 7.0 0.00 0.03 0.03 52
20260507164759 53 89 2.0 5.0 0.00 0.03 0.03 52
20260507164257 52 7 2.0 8.0 0.00 0.03 0.03 51
20260507163754 53 60 3.0 3.0 0.00 0.03 0.03 53
20260507163252 52 349 0.0 1.0 0.00 0.03 0.03 54
20260507162747 52 296 0.0 2.0 0.00 0.03 0.03 52
20260507162243 51 333 1.0 3.0 0.00 0.03 0.03 52
20260507161741 52 335 1.0 3.0 0.00 0.03 0.03 51
20260507161237 54 243 3.0 9.0 0.00 0.03 0.03 49
20260507160733 55 311 1.0 7.0 0.00 0.03 0.03 48
20260507160229 54 34 3.0 3.0 0.00 0.03 0.03 50
20260507155725 53 352 1.0 5.0 0.00 0.03 0.03 53
20260507155221 53 321 1.0 5.0 0.00 0.03 0.03 58
20260507154719 51 28 0.0 2.0 0.00 0.03 0.03 55
20260507154216 51 15 1.0 6.0 0.00 0.03 0.03 55
20260507153712 53 65 0.0 5.0 0.00 0.03 0.03 53
20260507153209 53 349 0.0 2.0 0.00 0.03 0.03 55
20260507152705 52 329 0.0 2.0 0.00 0.03 0.03 54
20260507152201 52 331 2.0 5.0 0.00 0.03 0.03 54
20260507151657 52 2 2.0 6.0 0.00 0.03 0.03 55
20260507151154 53 57 1.0 7.0 0.00 0.03 0.03 55
20260507150651 53 317 1.0 3.0 0.00 0.03 0.03 57
20260507150148 52 15 1.0 5.0 0.00 0.03 0.03 58
20260507145643 51 272 0.0 5.0 0.00 0.03 0.03 61
20260507145141 51 7 0.0 1.0 0.00 0.03 0.03 60
20260507144637 50 334 0.0 3.0 0.00 0.03 0.03 63
20260507144136 50 344 0.0 1.0 0.00 0.03 0.03 62
20260507143632 50 100 1.0 1.0 0.00 0.03 0.03 63
20260507143129 50 215 1.0 1.0 0.00 0.03 0.03 64
20260507142624 50 349 0.0 1.0 0.00 0.03 0.03 65
20260507142122 49 338 1.0 3.0 0.00 0.03 0.03 64
20260507141618 49 337 0.0 1.0 0.00 0.03 0.03 68
20260507141115 47 318 0.0 2.0 0.00 0.03 0.03 68
20260507140611 48 64 1.0 3.0 0.00 0.03 0.03 69
20260507140109 47 357 0.0 1.0 0.00 0.03 0.03 71
20260507135606 47 42 3.0 5.0 0.00 0.03 0.03 70
20260507135103 46 9 0.0 1.0 0.00 0.03 0.03 71
20260507134559 46 13 1.0 3.0 0.00 0.03 0.03 71
20260507134055 47 7 3.0 6.0 0.00 0.03 0.03 71
20260507133551 47 345 0.0 1.0 0.00 0.03 0.03 73
20260507133049 47 67 0.0 1.0 0.00 0.03 0.03 72
20260507132546 47 347 0.0 2.0 0.00 0.03 0.03 73
20260507132042 46 25 1.0 2.0 0.00 0.03 0.03 75
20260507131539 46 33 0.0 1.0 0.00 0.03 0.03 76
20260507131037 45 4 0.0 0.0 0.00 0.03 0.03 79
20260507130533 45 13 1.0 2.0 0.00 0.03 0.03 78
20260507130032 45 296 0.0 0.0 0.00 0.03 0.03 79
20260507125530 44 21 0.0 1.0 0.00 0.03 0.03 81
20260507125027 44 351 0.0 3.0 0.00 0.03 0.03 81
20260507124523 43 312 0.0 3.0 0.00 0.03 0.03 83
20260507124021 43 330 2.0 3.0 0.00 0.03 0.03 82
20260507123519 42 107 0.0 2.0 0.00 0.03 0.03 83
20260507123015 41 80 1.0 3.0 0.00 0.03 0.03 84
20260507122510 42 28 0.0 2.0 0.00 0.03 0.03 85
20260507122007 41 329 1.0 1.0 0.00 0.03 0.03 86
20260507121502 41 326 0.0 0.0 0.00 0.03 0.03 87
20260507120958 40 335 0.0 0.0 0.00 0.03 0.03 88
20260507120454 40 39 0.0 1.0 0.00 0.03 0.03 88
20260507115951 39 6 0.0 1.0 0.00 0.03 0.03 89
20260507111926 37 10 0.0 0.0 0.00 0.03 0.03 92
20260507111424 37 10 0.0 0.0 0.00 0.03 0.03 92
20260507110920 37 3 0.0 0.0 0.00 0.03 0.03 92
20260507110416 37 2 0.0 0.0 0.00 0.03 0.03 92
20260507105913 37 6 0.0 0.0 0.00 0.03 0.03 92
20260507105409 37 37 1.0 1.0 0.00 0.03 0.03 91
20260507104906 37 84 0.0 1.0 0.00 0.03 0.03 91
20260507104403 37 3 0.0 0.0 0.00 0.03 0.03 91
20260507103858 37 9 0.0 0.0 0.00 0.03 0.03 91
20260507103355 37 0 0.0 0.0 0.00 0.03 0.03 91
20260507102851 37 1 0.0 0.0 0.00 0.03 0.03 90
20260507102348 37 345 0.0 0.0 0.00 0.03 0.03 90
20260507101845 37 330 0.0 0.0 0.00 0.03 0.03 90
20260507101344 37 345 0.0 0.0 0.00 0.03 0.03 90
20260507100842 37 354 0.0 0.0 0.00 0.03 0.03 90
20260507100340 38 9 0.0 1.0 0.00 0.03 0.03 90
20260507095838 38 312 1.0 1.0 0.00 0.03 0.03 90
20260507095334 38 330 0.0 1.0 0.00 0.03 0.03 89
20260507094831 38 323 0.0 1.0 0.00 0.03 0.03 89
20260507094328 37 224 1.0 2.0 0.00 0.03 0.03 89
20260507093825 37 328 1.0 2.0 0.00 0.03 0.03 90
20260507093324 37 349 0.0 1.0 0.00 0.03 0.03 89
20260507092821 37 9 0.0 1.0 0.07 0.03 0.03 88
20260507092318 38 37 0.0 1.0 0.19 0.03 0.03 87
20260507091814 38 351 2.0 2.0 0.12 0.02 0.02 86
20260507091310 39 5 3.0 9.0 0.00 0.00 0.00 84
20260507090805 39 53 3.0 6.0 0.00 0.00 0.00 83
20260507090302 39 40 1.0 2.0 0.00 0.00 0.00 83
20260507085759 39 32 3.0 6.0 0.00 0.00 0.00 83
20260507085256 39 32 2.0 3.0 0.00 0.00 0.00 83
20260507084753 39 7 3.0 6.0 0.00 0.00 0.00 83
20260507084249 39 10 0.0 5.0 0.00 0.00 0.00 82
20260507083747 39 2 1.0 5.0 0.00 0.00 0.00 82
20260507083244 39 357 1.0 8.0 0.00 0.00 0.00 81
20260507082739 40 55 2.0 3.0 0.00 0.00 0.00 79
20260507082235 40 36 2.0 2.0 0.00 0.00 0.00 78
20260507081732 40 56 2.0 3.0 0.00 0.00 0.00 77
20260507081228 40 154 1.0 3.0 0.00 0.00 0.00 76
20260507080725 40 30 0.0 3.0 0.00 0.00 0.00 74
20260507080221 40 24 0.0 3.0 0.00 0.00 0.00 71
20260507075717 40 6 0.0 3.0 0.00 0.00 0.00 70
20260507075214 40 16 0.0 3.0 0.00 0.00 0.00 69
20260507074710 40 22 0.0 1.0 0.00 0.00 0.00 68
20260507074208 40 34 0.0 1.0 0.00 0.00 0.00 68
20260507073704 40 9 0.0 1.0 0.00 0.00 0.00 67
20260507073200 40 51 1.0 2.0 0.00 0.00 0.00 67
20260507072659 40 5 0.0 0.0 0.00 0.00 0.00 67
20260507072156 40 42 0.0 1.0 0.00 0.00 0.00 68
20260507071653 40 18 0.0 0.0 0.00 0.00 0.00 68
20260507071149 40 7 0.0 1.0 0.00 0.00 0.00 68
20260507070647 40 359 0.0 0.0 0.00 0.00 0.00 69
20260507070143 40 3 0.0 1.0 0.00 0.00 0.00 70
20260507065639 40 3 0.0 0.0 0.00 0.00 0.00 71
20260507065137 40 22 0.0 0.0 0.00 0.00 0.00 73
20260507064634 40 24 1.0 2.0 0.00 0.00 0.00 73
20260507064133 40 17 0.0 1.0 0.00 0.00 0.00 73
20260507063630 40 49 0.0 1.0 0.00 0.00 0.00 73
20260507063127 40 87 0.0 2.0 0.00 0.00 0.00 73
20260507062623 40 68 2.0 2.0 0.00 0.00 0.00 72
20260507062121 40 4 0.0 0.0 0.00 0.00 0.00 72
20260507061619 40 2 0.0 0.0 0.00 0.00 0.00 72
20260507061117 40 7 0.0 0.0 0.00 0.00 0.00 72
20260507060615 40 1 0.0 0.0 0.00 0.00 0.00 72
20260507060111 40 341 0.0 0.0 0.00 0.00 0.00 72
20260507055606 40 52 0.0 0.0 0.00 0.00 0.00 72
20260507055102 40 8 0.0 0.0 0.00 0.00 0.00 72
20260507054558 40 14 0.0 0.0 0.00 0.00 0.00 72
20260507054056 40 33 0.0 0.0 0.00 0.00 0.00 73
20260507053553 40 8 0.0 0.0 0.00 0.00 0.00 73
20260507053052 40 7 0.0 0.0 0.00 0.00 0.00 73
20260507052549 40 10 0.0 0.0 0.00 0.00 0.00 73
20260507052046 40 17 0.0 0.0 0.00 0.00 0.00 73
20260507051543 40 16 0.0 0.0 0.00 0.00 0.00 73
20260507051040 40 16 0.0 0.0 0.00 0.00 0.00 72
20260507050537 40 16 0.0 0.0 0.00 0.00 0.00 72
20260507050033 40 16 0.0 0.0 0.00 0.00 0.00 72
20260507045530 40 16 0.0 0.0 0.00 0.00 0.00 73
20260507045027 40 16 0.0 0.0 0.00 0.00 0.00 73
20260507044524 39 16 0.0 0.0 0.00 0.00 0.00 73
20260507044021 39 8 0.0 0.0 0.00 0.00 0.00 73
20260507043516 39 7 0.0 0.0 0.00 0.00 0.00 73
20260507043014 39 7 0.0 0.0 0.00 0.00 0.00 73
20260507042510 39 8 0.0 0.0 0.00 0.00 0.00 73
20260507042005 39 7 0.0 0.0 0.00 0.00 0.00 74
20260507041503 39 7 0.0 0.0 0.00 0.00 0.00 75
20260507040959 39 7 0.0 0.0 0.00 0.00 0.00 74
20260507040455 39 7 0.0 0.0 0.00 0.00 0.00 74
20260507035951 39 7 0.0 0.0 0.00 0.22 0.22 74
20260507035448 39 7 0.0 0.0 0.00 0.22 0.22 74
20260507034945 39 7 0.0 0.0 0.00 0.22 0.22 74
20260507034442 39 8 0.0 0.0 0.00 0.22 0.22 74
20260507033940 39 8 0.0 0.0 0.00 0.22 0.22 73
20260507033437 39 7 0.0 0.0 0.00 0.22 0.22 71
20260507032934 39 7 0.0 0.0 0.00 0.22 0.22 71
20260507032431 39 9 0.0 0.0 0.00 0.22 0.22 71
20260507031927 39 11 0.0 0.0 0.00 0.22 0.22 70
20260507031426 39 8 0.0 0.0 0.00 0.22 0.22 70
20260507030921 39 7 0.0 0.0 0.00 0.22 0.22 69
20260507030418 40 8 0.0 0.0 0.00 0.22 0.22 69
20260507025915 40 8 0.0 0.0 0.00 0.22 0.22 69
20260507025412 40 7 0.0 0.0 0.00 0.22 0.22 69
20260507024910 40 8 0.0 0.0 0.00 0.22 0.22 68
20260507024407 41 2 0.0 0.0 0.00 0.22 0.22 67
20260507023903 41 1 0.0 0.0 0.00 0.22 0.22 66
20260507023400 41 13 0.0 0.0 0.00 0.22 0.22 65
20260507022857 41 15 0.0 0.0 0.00 0.22 0.22 64
20260507022353 42 7 0.0 0.0 0.00 0.22 0.22 62
20260507021849 42 12 0.0 0.0 0.00 0.22 0.22 63
20260507021345 42 13 0.0 0.0 0.00 0.22 0.22 64
20260507020843 42 9 0.0 0.0 0.00 0.22 0.22 64
20260507020339 42 0 0.0 0.0 0.00 0.22 0.22 64
20260507015836 42 340 0.0 0.0 0.00 0.22 0.22 61
20260507015334 42 9 0.0 0.0 0.00 0.22 0.22 60
20260507014831 42 13 0.0 0.0 0.00 0.22 0.22 60
20260507014327 43 7 0.0 0.0 0.00 0.22 0.22 60
20260507013824 43 353 0.0 0.0 0.00 0.22 0.22 58
20260507013321 43 5 0.0 0.0 0.00 0.22 0.22 57
20260507012819 43 12 0.0 0.0 0.00 0.22 0.22 57
20260507012314 44 11 0.0 0.0 0.00 0.22 0.22 56
20260507011812 44 35 0.0 0.0 0.00 0.22 0.22 55
20260507011309 44 349 0.0 0.0 0.00 0.22 0.22 54
20260507010808 44 13 0.0 0.0 0.00 0.22 0.22 54